Tracking 21476 objects as of 29-Sep-2020
HD Live streaming from Space Station
objects crossing your sky now

DELTA 1 DEB

Track DELTA 1 DEB now!
10-day predictions


NORAD ID: 15788
Int'l Code: 1978-026GT
Perigee: 848.2 km
Apogee: 1,029.3 km
Inclination: 98.7 °
Period: 103.7 minutes
Semi major axis: 7309 km
RCS: 0.005 m2 (small)
Launch date: March 5, 1978
Source: United States (US)
Launch site: AIR FORCE WESTERN TEST RANGE (AFWTR)

Note: This is SATELLITE DEBRIS
aabbcc
Your satellite tracking list
Your tracking list is empty




NASA's NSSDC Master Catalog

Two Line Element Set (TLE):
1 15788U 78026GT  20272.42229647 +.00000249 +00000-0 +22352-3 0  9993
2 15788 098.7341 255.4567 0123855 172.9577 342.1807 13.89144418913112
Source of the keplerian elements: AFSPC